Flag for United Arab Emirates Weather past 2 weeks in Ajmān, Ajman, United Arab Emirates

Now
99 °F

Sunny.


Feels Like: 99 °F
Forecast: 92 / 106 °F
Wind: 8 mph from Southeast

Location: Sharjah International Airport

Current Time: Aug 5, 2015 at 8:59:06 AM

Latest Report: Aug 5, 2015 at 8:00 AM


Visibility: 10 mi

Pressure: 29.59 "Hg

Humidity: 29%

Dew point: 61 °F

Historic Weather in Ajmān — Graph

°F

Ajmān temperature yesterday

Maximum temperature yesterday: 108 °F (at 12:00 PM)
Minimum temperature yesterday: 90 °F (at 5:00 AM)
Average temperature yesterday: 99 °F

Past Weeks' High & Low Weather Summary

 TemperatureHumidityPressure
High115 °F (Jul 27, 2:00 PM)79% (Jul 24, 2:00 AM)29.62 "Hg (Jul 24, 2:00 AM)
Low82 °F (Jul 23, 5:00 AM)9% (Jul 24, 3:00 PM)29.36 "Hg (Jul 22, 4:00 PM)
Average100 °F34%29.49 "Hg
* Reported Jul 21 7:00 AM — Aug 5 7:00 AM, Ajmān, Weather by CustomWeather, © 2015

Note: Actual official high and low records may vary slightly from our data, if they occured in-between our weather recording intervals... More about our weather records

Advertising

Ajmān weather history for previous 24 hours

 ConditionsComfort  
Time TempWeatherWind HumidityBarometerVisibility
7:00 AM
Wed, Aug 5
93 °FSunny.6 mph39%29.59 "Hg10 mi
6:00 AM88 °FSunny.1 mph46%29.56 "Hg10 mi
5:00 AM90 °FClear.2 mph43%29.53 "Hg10 mi
4:00 AM90 °FClear.2 mph43%29.53 "Hg10 mi
3:00 AM91 °FClear.3 mph41%29.53 "Hg10 mi
1:00 AM93 °FClear.3 mph36%29.53 "Hg10 mi
12:00 AM93 °FClear.3 mph36%29.56 "Hg10 mi
11:00 PM
Tue, Aug 4
93 °FClear.6 mph39%29.56 "Hg10 mi
10:00 PM97 °FClear.1 mph34%29.56 "Hg10 mi
9:00 PM97 °FClear.3 mph37%29.56 "Hg10 mi
8:00 PM100 °FClear.6 mph31%29.56 "Hg10 mi
7:00 PM100 °FSunny.14 mph31%29.56 "Hg10 mi
6:00 PM102 °FSunny.14 mph31%29.56 "Hg10 mi
5:00 PM104 °FSunny.14 mph29%29.53 "Hg10 mi
4:00 PM106 °FSunny.16 mph28%29.53 "Hg10 mi
3:00 PM104 °FSunny.16 mph29%29.53 "Hg10 mi
2:00 PM106 °FSunny.15 mph26%29.56 "Hg10 mi
1:00 PM108 °FSunny.13 mph25%29.56 "Hg10 mi
12:00 PM108 °FSunny.6 mph20%29.59 "Hg10 mi
11:00 AM106 °FSunny.7 mph23%29.62 "Hg10 mi
10:00 AM102 °FSunny.10 mph26%29.62 "Hg10 mi
9:00 AM100 °FSunny.10 mph29%29.62 "Hg10 mi
8:00 AM95 °FSunny.6 mph41%29.62 "Hg10 mi
Weather by CustomWeather, © 2015

See weather overviewHow to use our weather pages